www.pogodaiklimat.ru

Погода и климат >> Архив погоды >> Россия >> Архангельская область >> Сура


ПОГОДА в Суре

  • Прогноз погоды в Суре
  • Монитор погоды в Суре

АРХИВ ПОГОДЫ в Суре

Время (UTC), дата Ветер
(напр.,м/с)
 
Видим.   Явления Облачность Т
(С)
Тd
(С)
f
(%)
Тe
(С)
Тes
(С)
Комфортность P
(гПа)
Po
(гПа)
Тmin
(С)
Tmax
(С)
R
(мм)
R24
(мм)
S
(см)
18 14.09 Ю 1 10 км в посл. час дождь 10/10 360 м
[Frnb Ns]
+11.3 +10.7 96 +11 +11 989.5 982.1
21 14.09 ЮЗ 3 4000 м слаб. дождь 10/10 360 м
[Frnb Ns]
+10.1 +9.3 95 +8 +8 988.5 981.2
00 15.09 ЮЗ 5
{10}
4000 м слаб. дождь 10/10 300 м
[Frnb Ns]
+9.0 +7.9 93 +5 +5 989.0 981.7
03 15.09 ЮЗ 5-10
{12}
4000 м слаб. дождь 10/10 360 м
[Frnb Ns]
+8.2 +7.1 93 +4 +4 989.4 982.0 +8.2 5
06 15.09 ЮЗ 6-10
{11}
4000 м слаб. дождь 10/10 330 м
[Frnb Ns]
+8.1 +6.6 90 +4 +4 989.6 982.2 +8.1
09 15.09 ЮЗ 7-10
{14}
4000 м слаб. дождь 10/10 300 м
[Frnb Ns]
+7.2 +5.3 88 +2 +2 990.2 982.8
12 15.09 З 6-10
{14}
2000 м дождь 10/10 300 м
[Frnb Ns]
+6.8 +5.1 89 +2 +2 991.6 984.1
15 15.09 З 7-13
{17}
2000 м дождь 10/10 270 м
[Frnb Ns]
+6.5 +4.7 88 +1 +1 991.8 984.3 +8.4 24
18 15.09 З 6-11
{14}
2000 м дождь 10/10 300 м
[Frnb Ns]
+5.8 +4.1 89 +1 +1 991.6 984.2
21 15.09 ЮЗ 4
{15}
20 км {дождь} 10/0 2000 м
[As op]
+6.1 +4.0 86 +2 +2 990.9 983.4
00 16.09 ЮЗ 4 20 км {дождь} 10/0 2000 м
[Ac As]
+5.4 +3.2 86 +1 +1 990.4 982.9
03 16.09 ЮЗ 4 20 км 8/0 2000 м
[Ac As]
+3.4 +1.9 90 -1 -1 989.7 982.1 +3.4 8
06 16.09 Ю 3 20 км 9/3 1000 м
[Cu hum Ac lent]
+6.2 +3.8 85 +3 +3 988.6 981.2 +3.1
09 16.09 Ю 3 20 км 10/10 500 м
[Cb cap]
+6.5 +4.3 86 +3 +3 987.9 980.5
12 16.09 ЮВ 2 20 км {ливн. осадки} 10/10 600 м
[Cb cap]
+7.3 +4.5 82 +5 +5 987.2 979.8
15 16.09 ЮВ 1 20 км 10/10 960 м
[Cu Sc]
+7.0 +4.6 85 +6 +6 986.5 979.1 +8.3 0.0
18 16.09 В 1 20 км 10/10 960 м
[Sc]
+5.8 +4.6 92 +5 +5 986.0 978.6
21 16.09 штиль 0 20 км 10/10 600 м
[Sc]
+5.5 +4.8 95 +4 +4 985.7 978.3
00 17.09 СВ 1 20 км 9/4 600 м
[Sc Ac As]
+5.0 +4.4 96 +4 +4 985.9 978.4
03 17.09 С 1 4000 м дымка 9/6 660 м
[Sc Ac As]
+4.6 +3.9 95 +3 +3 986.2 978.7 +4.5
06 17.09 СЗ 1 20 км 9/8 700 м
[Sc Ac trans]
+7.2 +4.9 85 +6 +7 986.8 979.4
09 17.09 С 1 20 км 10/10 630 м
[Cb cap]
+8.3 +5.2 81 +8 +8 987.9 980.5
12 17.09 СЗ 1 20 км 10/10 800 м
[Cb cap]
+8.6 +5.2 79 +8 +8 989.0 981.6
15 17.09 С 1 20 км 9/6 600 м
[Cb cap Ac trans]
+7.9 +4.6 80 +7 +7 990.0 982.6 +9.4
18 17.09 СЗ 2 20 км 9/5 600 м
[Sc Ac trans]
+6.1 +4.9 92 +4 +4 991.0 983.5
21 17.09 СЗ 1 20 км 10/0
[Ac und]
+5.7 +4.7 93 +4 +4 991.6 984.1
00 18.09 С 2 20 км 10/0
[Ac und]
+6.0 +4.8 92 +3 +3 992.5 985.0
03 18.09 С 2 20 км 10/10 500 м
[Cb cap]
+6.2 +4.9 91 +4 +4 993.7 986.2 +5.5
06 18.09 С 4 20 км 10/10 300 м
[St]
+5.0 +3.4 89 +1 +1 995.6 988.0 +5.0
09 18.09 СВ 2 20 км 9/9 720 м
[Sc]
+7.0 +2.2 71 +5 +5 997.3 989.8
12 18.09 С 4 20 км 9/9 800 м
[Sc]
+8.0 -0.6 55 +5 +5 998.6 991.1
15 18.09 С 1 20 км 3/3 600 м
[Sc]
+5.6 -0.8 63 +5 +5 999.9 992.3 +8.5
18 18.09 штиль 0 20 км 3/0
[Ac trans]
+0.9 -0.6 90 -0 -0 1001.1 993.4
21 18.09 СЗ 2 20 км местами туман поземный 9/0
[Ac trans]
-0.7 -1.6 94 -5 -5 1002.0 994.2
00 19.09 СЗ 2 20 км 6/0
[Ac trans]
-1.1 -1.7 96 -5 -5 1002.6 994.8
03 19.09 СЗ 2 10 км в посл. час ливневой дождь [диам. гололёда 0 мм] 9/9 660 м
[Cb cap]
-0.9 -1.4 96 -5 -5 1002.7 994.9 -2.0 0.0
06 19.09 СЗ 3 10 км {ливн. осадки} [диам. гололёда 0 мм] 10/10 210 м
[St]
+1.5 +0.7 94 -3 -3 1003.5 995.8
09 19.09 СЗ 4 20 км 10/10 500 м
[Cb cap]
+5.0 +1.8 80 +1 +1 1004.2 996.6
12 19.09 СЗ 3 10 км слаб. ливневой дождь 6/6 600 м
[Cb cap]
+6.2 +1.5 72 +3 +4 1005.0 997.4
15 19.09 З 2 10 км слаб. ливневой дождь 5/5 600 м
[Cb cap]
+3.5 +0.9 83 +1 +1 1006.1 998.4 +7.5 1
18 19.09 СЗ 1 20 км {ливн. осадки} ясно +0.5 -1.1 89 -2 -2 1007.1 999.4
21 19.09 Ю 1 20 км местами туман поземный 9/0
[Ac trans]
-1.1 -1.7 96 -3 -3 1007.2 999.4
00 20.09 Ю 1 20 км местами туман поземный 9/0 2000 м
[Ac trans]
-1.8 -2.3 96 -4 -4 1007.5 999.7
03 20.09 ЮВ 1 20 км 3/0 2000 м
[Ac lent Ci fib]
-3.6 -3.9 98 -6 -6 1007.3 999.4 -3.6 0.0
06 20.09 ЮВ 1 20 км {ливн. осадки} 9/9 420 м
[Cb cap]
+1.0 +0.3 95 -1 -1 1007.0 999.2
09 20.09 ЮЗ 5 20 км 8/4 300 м
[Cb cap Ac trans]
+5.2 +0.8 73 +1 +2 1006.3 998.7
12 20.09 З 5-10
{10}
20 км в посл. час ливневой дождь 9/9 540 м
[Cb cap]
+4.2 +0.1 75 -1 -0 1006.1 998.4
15 20.09 ЮЗ 2
{10}
20 км {ливн. осадки} 8/5 600 м
[Cb cap Ac trans Ci fib]
+2.4 +1.1 91 -1 -1 1005.7 998.0 +6.9 1
18 20.09 Ю 2 20 км {ливн. осадки} 9/0
[Ac As]
+0.7 +0.1 96 -3 -3 1005.1 997.4
21 20.09 ЮЗ 4 20 км 3/0
[Ci fib]
+0.2 -1.1 91 -5 -5 1003.9 996.2
00 21.09 ЮЗ 3 20 км 3/0
[Ci fib]
-0.2 -1.4 92 -5 -5 1002.9 995.2
03 21.09 ЮЗ 3 4000 м слаб. ливневой снег 10/10 420 м
[Cb cap]
+0.4 -0.9 91 -4 -4 1001.6 993.9 -0.8 0.8
06 21.09 ЮЗ 3 4000 м слаб. ливневой дождь 10/10 400 м
[Cb cap]
+1.6 +0.4 92 -3 -3 1001.2 993.5
09 21.09 ЮЗ 5 4000 м слаб. ливневой дождь 9/9 420 м
[Cb cap]
+4.0 +1.3 83 -1 -1 1000.9 993.3
12 21.09 З 3
{10}
20 км в посл. час ливневой дождь 6/6 300 м
[Cb cap]
+5.0 +2.7 85 +2 +2 1000.6 993.0
15 21.09 З 4 10 км слаб. ливневой дождь 9/9 660 м
[Cb cap]
+4.2 +1.2 81 -0 -0 1000.4 992.8 +6.2 3

 

Местоположение метеостанции Сура (Архангельская область, Россия): широта 63.58 долгота 45.63 высота над уровнем моря 62 м.

В архиве по умолчанию представлена погода в Суре за последнюю неделю. Архивные данные за месяц целиком и за предыдущие месяцы, начиная с января 2011 года, Вы можете получить, выбрав интересующий диапазон дат из раскрывающегося списка и нажав кнопку "Ввод!".


*Определитесь, кто Вы:
робот инопланетянин человек

Внимание! Время в таблицах - всемирное. Для получения местного времени необходимо прибавить поправку, которая равна 3 ч.

Смотрите также архив погоды в соседних городах и на ближайших метеорологических станциях:

Погода в Карпогорах (Архангельская область, Россия) (73 км)
Погода в Вендинге (Коми, Россия) (115 км)
Погода в Лешуконском (Архангельская область, Россия) (147 км)
Погода в Верхней Тойме (Архангельская область, Россия) (153 км)
Погода в Койнасе (Архангельская область, Россия) (163 км)
Погода в Кослане (Коми, Россия) (164 км)
Погода в Двинском Березнике (Архангельская область, Россия) (166 км)
Погода в Пинеге (Архангельская область, Россия) (167 км)
Погода в Емецке (Архангельская область, Россия) (190 км)
Погода в Холмогорах (Архангельская область, Россия) (206 км)

Пояснения к столбцам:

Ветер - указаны скорость ветра в м/с - средняя за 10 мин, порывы в срок и между сроками (в фигурных скобках) и направление, откуда дует ветер: С - северный, СВ - северо-восточный, В - восточный, ЮВ - юго-восточный, Ю - южный, ЮЗ - юго-западный, З - западный, СЗ - северо-западный.
Видимость - горизонтальная дальность видимости в метрах или километрах. При видимости от 1 до 10 км при отсутствии осадков обычно наблюдается дымка, при ухудшении видимости до 1 км и менее - туман. В сухую погоду видимость может ухудшаться дымом, пылью или мглою.
Явления - указаны атмосферные явления, наблюдавшиеся в срок или в последний час перед сроком; фигурными скобками обозначены явления, наблюдавшиеся между сроками (за 1-3 часа до срока); квадратными скобками обозначены град или гололедные отложения с указанием их диаметра в мм.
Облачность - указаны через наклонную черту общая и нижняя облачность в баллах и высота нижней границы облаков в метрах; квадратными скобками обозначены формы облаков: Ci - перистые, Cs - перисто-слоистые, Cc - перисто-кучевые, Ac - высококучевые, As - высокослоистые, Sc - слоисто-кучевые, Ns - слоисто-дождевые, Cu - кучевые, Cb - кучево-дождевые. Подробнее классификацию облаков см. в Атласе облаков (PDF).
T - Температура воздуха - температура, измеренная на высоте 2 м над землей.
Td - Температура точки росы - температура, при понижении до которой содержащийся в воздухе водяной пар достигнет насыщения.
f - Относительная влажность воздуха - влажноcть воздуха, измеренная на высоте 2 м над землей.
Te - Эффективная температура - температура, которую ощущает одетый по сезону человек в тени. Характеристика душности погоды. При расчете учитывается влияние влажности воздуха и скорости ветра на теплоощущения человека.
Tes - Эффективная температура на солнце - температура, которую ощущает человек, с поправкой на солнечный нагрев. Характеристика знойности погоды. Зависит от высоты солнца над горизонтом, облачности и скорости ветра. Ночью, в пасмурную погоду, а также при ветре 12 м/с и более поправка равна нулю.
P - Атмосферное давление - приведенное к уровню моря атмосферное давление.
Po - Атмосферное давление - измеренное на уровне метеостанции атмосферное давление.
Tmin - Минимальная температура - минимум температуры воздуха на высоте 2 м над землей.
Tmax - Максимальная температура - максимум температуры воздуха на высоте 2 м над землей.
R - Количество осадков - Количество выпавших осадков за период времени, мм. При наведении курсора мыши на число - период времени, за который выпало указанное количество осадков.
R24 - Количество осадков - Количество выпавших осадков за 24 часа, мм.
S - Снежный покров - Высота снежного покрова, см. При наведении курсора мыши на число - состояние снежного покрова и степень покрытия местности в баллах.